Location: Joplin
(37.0842°N, 94.5131°W)
Time: 11:38:01
(UTC-05:00)

N. Korean satellite - Pass Details

Date: 24 March 2019
Orbit: 457 x 508 km, 97.2° (Epoch: 22 April)

Event Time Altitude Azimuth Distance (km) Brightness Sun altitude
Rises 06:42:33 0° 27° (NNE) 2,534 10.7 -7.5°
Reaches altitude 10° 06:44:56 10° 43° (NE) 1,660 10.1 -7.0°
Maximum altitude 06:47:46 22° 96° (E) 1,106 9.6 -6.4°
Drops below altitude 10° 06:50:37 10° 148° (SSE) 1,673 9.7 -5.9°
Sets 06:53:01 0° 164° (SSE) 2,558 10.4 -5.4°
